Flight Track Log - Related Links

Times and Time Zones

All times are in EDT time to prevent confusion due to time zone crossing. See the SWA1533 flight status page for this flight to view local times or setup timezone preferences in your user account.

Time Position Orientation Groundspeed Altitude Reporting Facility
EDT Latitude Longitude Course Direction KTS MPH feet Rate Location/Type
Mon 21:13:12 39.1500 -76.7167 270° West 200 230 3,800  Level Potomac TRACON
Mon 21:14:12 39.1667 -76.7833 288° West 220 253 6,800 3,150 Climbing Potomac TRACON
Mon 21:15:12 39.2000 -76.8667 297° West 250 288 10,100 3,300 Climbing Potomac TRACON
Mon 21:16:12 39.2167 -76.9500 284° West 261 300 13,400 2,209 Climbing Potomac TRACON
Mon 21:17:00 39.1056 -77.2272 211° Southwest  Level FlightAware Approximate
Mon 21:18:14 39.1553 -77.1708 250° West 316 364 16,800  Level Washington Center
Mon 21:19:14 39.1222 -77.2906 250° West 350 403 19,800 2,900 Climbing Washington Center
Mon 21:20:14 39.0911 -77.4261 254° West 377 434 22,600 2,750 Climbing Washington Center
Mon 21:21:14 39.0722 -77.5756 261° West 392 451 25,300 2,300 Climbing Washington Center
Mon 21:22:14 39.0531 -77.7139 260° West 397 457 27,200 2,200 Climbing Washington Center
Mon 21:23:14 39.0317 -77.8550 259° West 403 464 29,700 2,100 Climbing Washington Center
Mon 21:24:14 39.0150 -77.9692 259° West 414 476 31,400 2,050 Climbing Washington Center
Mon 21:25:14 38.9928 -78.1369 260° West 408 470 33,800 2,200 Climbing Washington Center
Mon 21:26:14 38.9753 -78.2697 260° West 398 458 35,800 1,850 Climbing Washington Center
Mon 21:27:14 38.9558 -78.3972 259° West 387 445 37,500 1,100 Climbing Washington Center
Mon 21:28:14 38.9381 -78.5247 260° West 376 433 38,000 250 Climbing Washington Center
Mon 21:29:14 38.9183 -78.6492 259° West 370 426 38,000  Level Washington Center
Mon 21:30:14 38.9003 -78.7792 260° West 370 426 38,000  Level Washington Center
Mon 21:31:14 38.8803 -78.9064 259° West 370 426 38,000  Level Washington Center
Mon 21:32:14 38.8619 -79.0336 260° West 370 426 38,000  Level Washington Center
Mon 21:33:14 38.8417 -79.1631 259° West 370 426 38,000  Level Washington Center
Mon 21:34:14 38.8336 -79.2906 265° West 370 426 38,000  Level Washington Center
Mon 21:35:14 38.8319 -79.4131 269° West 364 419 38,000  Level Washington Center
Mon 21:36:14 38.8278 -79.5383 268° West 364 419 38,000  Level Washington Center
Mon 21:37:14 38.8339 -79.6719 273° West 371 427 38,000  Level Washington Center
Mon 21:38:14 38.8322 -79.7811 269° West 360 414 38,000  Level Washington Center
Mon 21:39:14 38.8278 -79.9061 267° West 355 409 38,000  Level Washington Center
Mon 21:40:14 38.8253 -80.0258 269° West 350 403 38,000  Level Washington Center
Mon 21:41:13 38.8203 -80.1614 267° West 344 396 38,000  Level Washington Center
Mon 21:42:00 38.8169 -80.2431 267° West 343 395 38,000  Level Indianapolis Center
Mon 21:43:01 38.8133 -80.3675 268° West 347 399 38,000  Level Indianapolis Center
Mon 21:44:02 38.8103 -80.4925 268° West 351 404 38,000  Level Indianapolis Center
Mon 21:45:04 38.8067 -80.6194 268° West 355 409 38,000  Level Indianapolis Center
Mon 21:46:05 38.8017 -80.7461 267° West 358 412 38,000  Level Indianapolis Center
Mon 21:47:06 38.7978 -80.8736 268° West 360 414 38,000  Level Indianapolis Center
Mon 21:48:07 38.7933 -81.0000 267° West 356 410 38,000  Level Indianapolis Center
Mon 21:49:08 38.7897 -81.1264 268° West 356 410 38,000  Level Indianapolis Center
Mon 21:50:10 38.7839 -81.2775 267° West 354 407 38,000  Level Indianapolis Center
Mon 21:51:11 38.7803 -81.4025 268° West 353 406 38,000  Level Indianapolis Center
Mon 21:52:12 38.7747 -81.5239 267° West 353 406 38,000  Level Indianapolis Center
Mon 21:53:13 38.7700 -81.6481 267° West 351 404 38,000  Level Indianapolis Center
Mon 21:54:14 38.7658 -81.7714 268° West 355 409 38,000  Level Indianapolis Center
Mon 21:55:15 38.7603 -81.8950 267° West 351 404 38,000  Level Indianapolis Center
Mon 21:56:17 38.7556 -82.0192 267° West 350 403 38,000  Level Indianapolis Center
Mon 21:57:18 38.7492 -82.1686 267° West 350 403 38,000  Level Indianapolis Center
Mon 21:58:19 38.7450 -82.2919 268° West 348 400 38,000  Level Indianapolis Center
Mon 21:59:20 38.7394 -82.4164 267° West 351 404 38,000  Level Indianapolis Center
Mon 22:00:21 38.7350 -82.5400 267° West 349 402 38,000  Level Indianapolis Center
Mon 22:01:22 38.7289 -82.6636 266° West 350 403 38,000  Level Indianapolis Center
Mon 22:02:23 38.7242 -82.7889 267° West 351 404 38,000  Level Indianapolis Center
Mon 22:03:24 38.7186 -82.9150 267° West 354 407 38,000  Level Indianapolis Center
Mon 22:04:25 38.7133 -83.0400 267° West 353 406 38,000  Level Indianapolis Center
Mon 22:05:26 38.7067 -83.1811 267° West 356 410 38,000  Level Indianapolis Center
Mon 22:06:27 38.7006 -83.3078 267° West 354 407 38,000  Level Indianapolis Center
Mon 22:07:28 38.6944 -83.4364 267° West 356 410 38,000  Level Indianapolis Center
Mon 22:08:29 38.6878 -83.5644 266° West 358 412 38,000  Level Indianapolis Center
Mon 22:09:30 38.6822 -83.6914 267° West 355 409 38,000  Level Indianapolis Center
Mon 22:10:31 38.6753 -83.8194 266° West 356 410 38,000  Level Indianapolis Center
Mon 22:11:32 38.6686 -83.9444 266° West 353 406 38,000  Level Indianapolis Center
Mon 22:12:33 38.6622 -84.0708 266° West 351 404 38,000  Level Indianapolis Center
Mon 22:13:34 38.6558 -84.1967 266° West 353 406 38,000  Level Indianapolis Center
Mon 22:14:35 38.6500 -84.3228 267° West 352 405 38,000  Level Indianapolis Center
Mon 22:15:36 38.6578 -84.4500 275° West 354 407 38,000  Level Indianapolis Center
Mon 22:16:37 38.6642 -84.5767 274° West 360 414 38,000  Level Indianapolis Center
Mon 22:17:38 38.6719 -84.7050 274° West 360 414 38,000  Level Indianapolis Center
Mon 22:18:39 38.6797 -84.8339 274° West 362 417 38,000  Level Indianapolis Center
Mon 22:19:40 38.6867 -84.9619 274° West 359 413 38,000  Level Indianapolis Center
Mon 22:20:41 38.6939 -85.0903 274° West 359 413 38,000  Level Indianapolis Center
Mon 22:21:42 38.7008 -85.2183 274° West 358 412 38,000  Level Indianapolis Center
Mon 22:22:43 38.7069 -85.3461 274° West 357 411 38,000  Level Indianapolis Center
Mon 22:23:44 38.7144 -85.4733 274° West 356 410 38,000  Level Indianapolis Center
Mon 22:24:45 38.7208 -85.6011 274° West 356 410 38,000 246 Level Indianapolis Center
Mon 22:25:46 38.7364 -85.7272 279° West 355 409 38,500 738 Climbing Indianapolis Center
Mon 22:26:47 38.7636 -85.8494 286° West 354 407 39,500 738 Climbing Indianapolis Center
Mon 22:27:48 38.7886 -85.9714 285° West 356 410 40,000 246 Climbing Indianapolis Center
Mon 22:28:49 38.8003 -86.0994 277° West 360 414 40,000  Level Indianapolis Center
Mon 22:29:49 38.8056 -86.2297 273° West 367 422 40,000  Level Indianapolis Center
Mon 22:30:50 38.8114 -86.3597 273° West 365 420 40,000  Level Indianapolis Center
Mon 22:31:52 38.8083 -86.4906 268° West 369 425 40,000  Level Indianapolis Center
Mon 22:32:52 38.7975 -86.6464 265° West 367 422 40,000  Level Indianapolis Center
Mon 22:33:53 38.7897 -86.7769 266° West 367 422 40,000  Level Indianapolis Center
Mon 22:34:54 38.7817 -86.9061 265° West 366 421 40,000  Level Indianapolis Center
Mon 22:35:55 38.7733 -87.0353 265° West 366 421 40,000  Level Indianapolis Center
Mon 22:36:56 38.7658 -87.1642 266° West 365 420 40,000  Level Indianapolis Center
Mon 22:37:57 38.7575 -87.2925 265° West 363 418 40,000  Level Indianapolis Center
Mon 22:38:58 38.7486 -87.4183 265° West 358 412 40,000  Level Indianapolis Center
Mon 22:39:59 38.7408 -87.5456 266° West 359 413 40,000  Level Indianapolis Center
Mon 22:41:00 38.7317 -87.6747 265° West 363 418 40,000  Level Indianapolis Center
Mon 22:42:01 38.7231 -87.8047 265° West 365 420 40,000  Level Indianapolis Center
Mon 22:43:02 38.7142 -87.9375 265° West 372 428 40,000  Level Indianapolis Center
Mon 22:43:29 38.7103 -87.9911 265° West 369 425 40,000  Level Kansas City Center
Mon 22:44:31 38.6986 -88.1464 265° West 367 422 40,000  Level Kansas City Center
Mon 22:45:32 38.6892 -88.2769 265° West 368 423 40,000  Level Kansas City Center
Mon 22:46:33 38.6789 -88.4064 264° West 367 422 40,000  Level Kansas City Center
Mon 22:47:33 38.6692 -88.5356 265° West 366 421 40,000  Level Kansas City Center
Mon 22:48:33 38.6594 -88.6614 264° West 362 417 40,000  Level Kansas City Center
Mon 22:49:36 38.6503 -88.7922 265° West 365 420 40,000  Level Kansas City Center
Mon 22:50:35 38.6406 -88.9208 265° West 365 420 40,000  Level Kansas City Center
Mon 22:51:36 38.6275 -89.0678 264° West 368 423 40,000  Level Kansas City Center
Mon 22:52:38 38.6186 -89.1972 265° West 366 421 40,000  Level Kansas City Center
Mon 22:53:40 38.6069 -89.3272 263° West 368 423 40,000  Level Kansas City Center
Mon 22:54:41 38.5967 -89.4558 264° West 365 420 40,000  Level Kansas City Center
Mon 22:55:41 38.5853 -89.5842 264° West 364 419 40,000  Level Kansas City Center
Mon 22:56:44 38.5767 -89.6956 264° West 362 417 40,000  Level Kansas City Center
Mon 22:57:43 38.5656 -89.8256 264° West 365 420 40,000  Level Kansas City Center
Mon 22:58:43 38.5511 -89.9806 263° West 367 422 40,000  Level Kansas City Center
Mon 22:59:47 38.5400 -90.1114 264° West 368 423 40,000  Level Kansas City Center
Mon 23:00:46 38.5272 -90.2414 263° West 367 422 40,000  Level Kansas City Center
Mon 23:01:49 38.5150 -90.3742 263° West 370 426 40,000  Level Kansas City Center
Mon 23:02:50 38.5031 -90.5142 264° West 370 426 40,000  Level Kansas City Center
Mon 23:03:49 38.4897 -90.6467 263° West 375 432 40,000  Level Kansas City Center
Mon 23:04:49 38.4778 -90.7719 263° West 374 430 40,000  Level Kansas City Center
Mon 23:05:52 38.4650 -90.9058 263° West 377 434 40,000  Level Kansas City Center
Mon 23:06:53 38.4533 -91.0361 264° West 374 430 40,000  Level Kansas City Center
Mon 23:07:53 38.4400 -91.1683 263° West 375 432 40,000  Level Kansas City Center
Mon 23:08:54 38.4281 -91.2978 263° West 372 428 40,000  Level Kansas City Center
Mon 23:09:56 38.4147 -91.4339 263° West 369 425 40,000  Level Kansas City Center
Mon 23:10:57 38.4011 -91.5650 262° West 372 428 40,000  Level Kansas City Center
Mon 23:11:57 38.3894 -91.6956 264° West 372 428 40,000  Level Kansas City Center
Mon 23:12:58 38.3750 -91.8250 262° West 370 426 40,000  Level Kansas City Center
Mon 23:14:00 38.3606 -91.9572 262° West 376 433 40,000  Level Kansas City Center
Mon 23:15:00 38.3464 -92.0883 262° West 376 433 40,000  Level Kansas City Center
Mon 23:16:04 38.3325 -92.2206 262° West 379 436 40,000  Level Kansas City Center
Mon 23:17:03 38.3150 -92.3808 262° West 384 442 40,000  Level Kansas City Center
Mon 23:18:06 38.3011 -92.5153 263° West 386 444 40,000  Level Kansas City Center
Mon 23:19:06 38.2853 -92.6497 262° West 387 445 40,000  Level Kansas City Center
Mon 23:20:07 38.2703 -92.7844 262° West 388 447 40,000  Level Kansas City Center
Mon 23:21:07 38.2550 -92.9197 262° West 386 444 40,000  Level Kansas City Center
Mon 23:22:09 38.2389 -93.0547 261° West 387 445 40,000  Level Kansas City Center
Mon 23:23:10 38.2236 -93.1894 262° West 388 447 40,000  Level Kansas City Center
Mon 23:24:10 38.2078 -93.3253 262° West 388 447 40,000  Level Kansas City Center
Mon 23:25:10 38.1917 -93.4589 261° West 385 443 40,000  Level Kansas City Center
Mon 23:26:12 38.1753 -93.5933 261° West 384 442 40,000  Level Kansas City Center
Mon 23:27:14 38.1583 -93.7264 261° West 382 440 40,000  Level Kansas City Center
Mon 23:28:15 38.1425 -93.8589 261° West 381 438 40,000  Level Kansas City Center
Mon 23:29:16 38.1233 -94.0194 261° West 381 438 40,000  Level Kansas City Center
Mon 23:30:17 38.1083 -94.1439 261° West 384 442 40,000  Level Kansas City Center
Mon 23:31:16 38.0914 -94.2728 261° West 386 444 40,000  Level Kansas City Center
Mon 23:32:18 38.0731 -94.4225 261° West 385 443 40,000  Level Kansas City Center
Mon 23:33:20 38.0567 -94.5506 261° West 383 441 40,000  Level Kansas City Center
Mon 23:34:19 38.0394 -94.6803 260° West 387 445 40,000  Level Kansas City Center
Mon 23:35:20 38.0203 -94.8294 261° West 383 441 40,000  Level Kansas City Center
Mon 23:36:21 38.0031 -94.9539 260° West 379 436 40,000  Level Kansas City Center
Mon 23:37:24 37.9867 -95.0800 261° West 378 435 40,000  Level Kansas City Center
Mon 23:38:23 37.9664 -95.2292 260° West 380 437 40,000  Level Kansas City Center
Mon 23:39:24 37.9506 -95.3519 261° West 371 427 40,000  Level Kansas City Center
Mon 23:40:27 37.9344 -95.4683 260° West 367 422 40,000  Level Kansas City Center
Mon 23:41:25 37.9131 -95.6211 260° West 366 421 40,000  Level Kansas City Center
Mon 23:42:27 37.8956 -95.7514 260° West 371 427 40,000  Level Kansas City Center
Mon 23:43:27 37.8767 -95.8833 260° West 378 435 40,000  Level Kansas City Center
Mon 23:44:29 37.8589 -96.0128 260° West 374 430 40,000  Level Kansas City Center
Mon 23:45:32 37.8419 -96.1297 260° West 376 433 40,000  Level Kansas City Center
Mon 23:46:33 37.8239 -96.2606 260° West 377 434 40,000  Level Kansas City Center
Mon 23:47:34 37.8053 -96.3906 260° West 377 434 40,000  Level Kansas City Center
Mon 23:48:34 37.7856 -96.5217 259° West 379 436 40,000  Level Kansas City Center
Mon 23:49:36 37.7631 -96.6781 260° West 378 435 40,000  Level Kansas City Center
Mon 23:50:34 37.7439 -96.8086 260° West 377 434 40,000  Level Kansas City Center
Mon 23:51:36 37.7242 -96.9369 259° West 374 430 40,000  Level Kansas City Center
Mon 23:52:36 37.7050 -97.0697 260° West 372 428 40,000  Level Kansas City Center
Mon 23:53:39 37.6858 -97.1928 259° West 369 425 40,000  Level Kansas City Center
Mon 23:54:38 37.6664 -97.3203 259° West 368 423 40,000  Level Kansas City Center
Mon 23:55:40 37.6475 -97.4478 259° West 369 425 40,000  Level Kansas City Center
Mon 23:56:40 37.6267 -97.5775 259° West 373 429 40,000  Level Kansas City Center
Mon 23:57:43 37.6058 -97.7075 259° West 376 433 40,000  Level Kansas City Center
Mon 23:58:41 37.5853 -97.8381 259° West 376 433 40,000 -148 Level Kansas City Center
Mon 23:59:45 37.5644 -97.9697 259° West 379 436 39,700 -624 Descending Kansas City Center
Tue 00:00:46 37.5442 -98.0989 259° West 376 433 38,700 -836 Descending Kansas City Center
Tue 00:01:47 37.5228 -98.2278 258° West 374 430 38,000 -350 Descending Kansas City Center
Tue 00:02:46 37.5014 -98.3558 258° West 373 429 38,000  Level Kansas City Center
Tue 00:03:48 37.4811 -98.4853 259° West 375 432 38,000  Level Kansas City Center
Tue 00:04:47 37.4597 -98.6153 258° West 377 434 38,000  Level Kansas City Center
Tue 00:05:49 37.4386 -98.7444 258° West 377 434 38,000  Level Kansas City Center
Tue 00:06:51 37.4164 -98.8728 258° West 376 433 38,000  Level Kansas City Center
Tue 00:07:52 37.3950 -99.0031 258° West 378 435 38,000  Level Kansas City Center
Tue 00:08:52 37.3719 -99.1333 257° West 382 440 38,000  Level Kansas City Center
Tue 00:09:54 37.3481 -99.2653 257° West 385 443 38,000  Level Kansas City Center
Tue 00:10:54 37.3214 -99.4256 258° West 389 448 38,000  Level Kansas City Center
Tue 00:11:56 37.2983 -99.5644 258° West 389 448 38,000  Level Kansas City Center
Tue 00:12:57 37.2756 -99.6928 257° West 392 451 38,000  Level Kansas City Center
Tue 00:13:57 37.2528 -99.8208 257° West 393 452 38,000  Level Kansas City Center
Tue 00:14:58 37.2258 -99.9692 257° West 391 450 38,000  Level Kansas City Center
Tue 00:15:59 37.2036 -100.0967 258° West 390 449 38,000  Level Kansas City Center
Tue 00:16:57 37.1800 -100.2242 257° West 391 450 38,000  Level Kansas City Center
Tue 00:18:01 37.1550 -100.3692 258° West 384 442 38,000  Level Kansas City Center
Tue 00:19:00 37.1328 -100.4939 257° West 382 440 38,000  Level Kansas City Center
Tue 00:20:03 37.1100 -100.6150 257° West 376 433 38,000  Level Kansas City Center
Tue 00:21:01 37.0833 -100.7592 257° West 378 435 38,000  Level Kansas City Center
Tue 00:22:04 37.0611 -100.8806 257° West 375 432 38,000  Level Kansas City Center
Tue 00:23:05 37.0356 -101.0025 255° West 375 432 38,000  Level Kansas City Center
Tue 00:24:06 36.9992 -101.1156 248° West 368 423 38,000  Level Kansas City Center
Tue 00:25:07 36.9586 -101.2469 249° West 365 420 38,000  Level Kansas City Center
Tue 00:26:05 36.9219 -101.3600 248° West 365 420 38,000  Level Kansas City Center
Tue 00:26:57 36.8869 -101.4747 249° West 368 423 38,000  Level Albuquerque Center
Tue 00:27:58 36.8508 -101.5867 248° West 365 420 38,000  Level Albuquerque Center
Tue 00:28:59 36.8156 -101.6994 249° West 365 420 38,000  Level Albuquerque Center
Tue 00:30:00 36.7739 -101.8311 248° West 364 419 38,000  Level Albuquerque Center
Tue 00:31:00 36.7369 -101.9450 248° West 369 425 38,000  Level Albuquerque Center
Tue 00:32:01 36.7017 -102.0572 249° West 366 421 38,000  Level Albuquerque Center
Tue 00:33:02 36.6589 -102.1906 248° West 369 425 38,000  Level Albuquerque Center
Tue 00:34:03 36.6194 -102.3106 248° West 368 423 38,000  Level Albuquerque Center
Tue 00:35:04 36.5806 -102.4283 248° West 369 425 38,000  Level Albuquerque Center
Tue 00:36:04 36.5422 -102.5469 248° West 371 427 38,000  Level Albuquerque Center
Tue 00:37:05 36.5039 -102.6653 248° West 372 428 38,000  Level Albuquerque Center
Tue 00:38:06 36.4650 -102.7819 248° West 369 425 38,000  Level Albuquerque Center
Tue 00:39:07 36.4272 -102.9006 248° West 366 421 38,000  Level Albuquerque Center
Tue 00:40:07 36.3889 -103.0172 248° West 365 420 38,000  Level Albuquerque Center
Tue 00:41:08 36.3489 -103.1314 247° West 359 413 38,000  Level Albuquerque Center
Tue 00:42:09 36.3111 -103.2472 248° West 359 413 38,000  Level Albuquerque Center
Tue 00:43:09 36.2731 -103.3656 248° West 365 420 38,000  Level Albuquerque Center
Tue 00:44:10 36.2333 -103.4803 247° West 361 415 38,000  Level Albuquerque Center
Tue 00:45:11 36.1950 -103.5967 248° West 362 417 38,000  Level Albuquerque Center
Tue 00:46:12 36.1556 -103.7100 247° West 359 413 38,000  Level Albuquerque Center
Tue 00:47:12 36.1150 -103.8236 246° West 359 413 38,000  Level Albuquerque Center
Tue 00:48:13 36.0744 -103.9400 247° West 363 418 38,000  Level Albuquerque Center
Tue 00:49:14 36.0356 -104.0558 247° West 363 418 38,000  Level Albuquerque Center
Tue 00:50:14 35.9961 -104.1711 247° West 364 419 38,000  Level Albuquerque Center
Tue 00:51:15 35.9558 -104.2850 246° West 361 415 38,000  Level Albuquerque Center
Tue 00:52:16 35.9161 -104.3978 247° West 359 413 38,000  Level Albuquerque Center
Tue 00:53:16 35.8781 -104.5103 247° West 356 410 38,000  Level Albuquerque Center
Tue 00:54:17 35.8383 -104.6247 247° West 359 413 38,000  Level Albuquerque Center
Tue 00:55:17 35.7972 -104.7375 246° West 360 414 38,000  Level Albuquerque Center
Tue 00:56:18 35.7581 -104.8503 247° West 359 413 38,000  Level Albuquerque Center
Tue 00:57:19 35.7175 -104.9636 246° West 360 414 38,000  Level Albuquerque Center
Tue 00:58:19 35.6772 -105.0753 246° West 357 411 38,000  Level Albuquerque Center
Tue 00:59:20 35.6442 -105.1933 251° West 362 417 38,000  Level Albuquerque Center
Tue 01:00:20 35.6225 -105.3203 258° West 375 432 38,000  Level Albuquerque Center
Tue 01:01:21 35.5986 -105.4436 257° West 372 428 38,000  Level Albuquerque Center
Tue 01:02:22 35.5789 -105.5689 259° West 371 427 38,000  Level Albuquerque Center
Tue 01:03:22 35.5544 -105.6953 257° West 375 432 38,000  Level Albuquerque Center
Tue 01:04:23 35.5308 -105.8261 258° West 386 444 38,000  Level Albuquerque Center
Tue 01:05:24 35.5086 -105.9558 258° West 393 452 38,000  Level Albuquerque Center
Tue 01:06:24 35.4811 -106.0869 256° West 388 447 38,000  Level Albuquerque Center
Tue 01:07:25 35.4592 -106.2069 257° West 377 434 38,000  Level Albuquerque Center
Tue 01:08:25 35.4369 -106.3314 258° West 375 432 38,000  Level Albuquerque Center
Tue 01:09:26 35.4128 -106.4572 257° West 378 435 38,000  Level Albuquerque Center
Tue 01:10:27 35.3881 -106.5839 257° West 383 441 38,000  Level Albuquerque Center
Tue 01:11:27 35.3633 -106.7308 258° West 378 435 38,000  Level Albuquerque Center
Tue 01:12:28 35.3389 -106.8531 256° West 383 441 38,000  Level Albuquerque Center
Tue 01:13:28 35.3069 -106.9967 255° West 388 447 38,000  Level Albuquerque Center
Tue 01:14:29 35.2836 -107.1186 257° West 385 443 38,000  Level Albuquerque Center
Tue 01:15:29 35.2600 -107.2417 257° West 392 451 38,000  Level Albuquerque Center
Tue 01:16:30 35.2347 -107.3669 256° West 387 445 38,000 -541 Level Albuquerque Center
Tue 01:17:31 35.2097 -107.4922 256° West 382 440 36,900 -1,438 Descending Albuquerque Center
Tue 01:18:31 35.1836 -107.6231 256° West 375 432 35,100 -1,785 Descending Albuquerque Center
Tue 01:19:32 35.1572 -107.7508 256° West 395 455 33,300 -1,438 Descending Albuquerque Center
Tue 01:20:32 35.1272 -107.8950 256° West 394 453 32,200 -645 Descending Albuquerque Center
Tue 01:21:33 35.1033 -108.0153 256° West 384 442 32,000 -99 Descending Albuquerque Center
Tue 01:22:33 35.0781 -108.1381 256° West 386 444 32,000  Level Albuquerque Center
Tue 01:23:34 35.0419 -108.2725 252° West 375 432 32,000  Level Albuquerque Center
Tue 01:24:34 35.0008 -108.3878 247° West 381 438 32,000  Level Albuquerque Center
Tue 01:25:35 34.9603 -108.5017 247° West 381 438 32,000  Level Albuquerque Center
Tue 01:26:35 34.9211 -108.6147 247° West 380 437 32,000  Level Albuquerque Center
Tue 01:27:36 34.8733 -108.7461 246° West 379 436 32,000  Level Albuquerque Center
Tue 01:28:36 34.8331 -108.8597 247° West 381 438 32,000  Level Albuquerque Center
Tue 01:29:37 34.7922 -108.9733 246° West 381 438 32,000  Level Albuquerque Center
Tue 01:30:37 34.7442 -109.1075 246° West 386 444 32,000  Level Albuquerque Center
Tue 01:31:38 34.7019 -109.2236 246° West 390 449 32,000  Level Albuquerque Center
Tue 01:32:38 34.6603 -109.3367 246° West 386 444 32,000  Level Albuquerque Center
Tue 01:33:39 34.6097 -109.4692 245° Southwest 387 445 32,000 -347 Level Albuquerque Center
Tue 01:34:39 34.5672 -109.5833 246° West 385 443 31,300 -843 Descending Albuquerque Center
Tue 01:35:40 34.5247 -109.7017 246° West 392 451 30,300 -1,388 Descending Albuquerque Center
Tue 01:36:40 34.4808 -109.8189 246° West 398 458 28,500 -1,934 Descending Albuquerque Center
Tue 01:37:41 34.4339 -109.9519 247° West 390 449 26,400 -1,240 Descending Albuquerque Center
Tue 01:38:41 34.3919 -110.0619 245° Southwest 381 438 26,000 -198 Descending Albuquerque Center
Tue 01:39:42 34.3533 -110.1650 246° West 362 417 26,000  Level Albuquerque Center
Tue 01:40:42 34.3078 -110.2864 246° West 355 409 26,000  Level Albuquerque Center
Tue 01:41:43 34.2692 -110.3931 246° West 364 419 26,000  Level Albuquerque Center
Tue 01:42:43 34.2239 -110.5067 244° Southwest 375 432 26,000  Level Albuquerque Center
Tue 01:43:44 34.1811 -110.6172 245° Southwest 371 427 26,000 -149 Level Albuquerque Center
Tue 01:44:44 34.1369 -110.7369 246° West 370 426 25,700 -1,240 Descending Albuquerque Center
Tue 01:45:45 34.0953 -110.8456 245° Southwest 362 417 23,500 -2,231 Descending Albuquerque Center
Tue 01:46:45 34.0553 -110.9503 245° Southwest 349 402 21,200 -2,231 Descending Albuquerque Center
Tue 01:47:46 34.0161 -111.0536 245° Southwest 342 394 19,000 -2,331 Descending Albuquerque Center
Tue 01:48:46 33.9772 -111.1578 246° West 341 392 16,500 -1,800 Descending Albuquerque Center
Tue 01:49:46 33.9200 -111.2433 231° Southwest 331 381 15,400 -1,488 Descending Albuquerque Center
Tue 01:50:47 33.8567 -111.3189 225° Southwest 321 369 13,500 -1,934 Descending Albuquerque Center
Tue 01:51:47 33.7961 -111.3922 225° Southwest 309 356 11,500 -1,240 Descending Albuquerque Center
Tue 01:52:48 33.7408 -111.4583 225° Southwest 280 322 11,000 -1,041 Descending Albuquerque Center
Tue 01:53:48 33.6917 -111.5161 224° Southwest 250 288 9,400 -992 Descending Albuquerque Center
Tue 01:54:49 33.6392 -111.5786 225° Southwest 261 300 9,000 -298 Descending Albuquerque Center
Tue 01:55:49 33.5922 -111.6356 225° Southwest 243 280 8,800 -992 Descending Albuquerque Center
Tue 01:56:50 33.5442 -111.6958 226° Southwest 251 289 7,000 -1,289 Descending Albuquerque Center
Tue 01:57:50 33.5011 -111.7533 228° Southwest 232 267 6,200 -992 Descending Albuquerque Center
Tue 01:58:51 33.4642 -111.8042 229° Southwest 204 235 5,000 -1,190 Descending Albuquerque Center
Tue 01:59:51 33.4325 -111.8517 231° Southwest 186 214 3,800 -1,190 Descending Albuquerque Center
Tue 02:00:52 33.4308 -111.9033 268° West 157 181 2,600 -942 Descending Albuquerque Center
Tue 02:01:52 33.4314 -111.9494 271° West 142 163 1,900 -750 Descending Albuquerque Center
Tue 02:02:52 33.4308 -112.0017 269° West 142 163 1,100 -800 Descending Albuquerque Center
Tue 02:04:00 33.4333 -112.0000 248° West  Level FlightAware Approximate

Login

Don't have an account? Register now (free) for customized features, flight alerts, and more!